SAS2K ENKR-ENTC

Flight info

Callsign SAS2K
Flight time 0h 46m
Altitude 36000
Route VADLA DCT TINOS DCT KIIKA
Aircraft A319/M-SDE3FGHIRWY/LB1

Departure

Time 2026-04-17 21:03
Airport Kirkenes Airport, Høybuktmoen (ENKR)

Arrival

Time 2026-04-17 21:49
Airport Tromsø Airport (ENTC)
Time Latitude Longitude Altitude Speed Heading
2026-04-17 20:43 69.72200 29.88352 298 ft 0 kts 159°
2026-04-17 20:55 69.72211 29.88340 300 ft 2 kts 158°
2026-04-17 20:56 69.72226 29.88323 297 ft 2 kts 159°
2026-04-17 20:56 69.72242 29.88306 298 ft 2 kts 160°
2026-04-17 20:56 69.72248 29.88300 298 ft 0 kts 159°
2026-04-17 20:59 69.72247 29.88299 298 ft 0 kts 165°
2026-04-17 20:59 69.72246 29.88296 297 ft 0 kts 185°
2026-04-17 20:59 69.72245 29.88268 294 ft 3 kts 258°
2026-04-17 21:00 69.72256 29.88117 296 ft 11 kts 303°
2026-04-17 21:00 69.72334 29.88007 298 ft 15 kts 339°
2026-04-17 21:00 69.72385 29.87809 294 ft 16 kts 254°
2026-04-17 21:00 69.72341 29.87474 295 ft 20 kts 250°
2026-04-17 21:01 69.72286 29.87064 296 ft 24 kts 249°
2026-04-17 21:01 69.72249 29.86791 296 ft 12 kts 248°
2026-04-17 21:01 69.72228 29.86563 298 ft 10 kts 269°
2026-04-17 21:01 69.72206 29.86546 298 ft 5 kts 70°
2026-04-17 21:02 69.72226 29.86625 300 ft 0 kts 68°
2026-04-17 21:02 69.72244 29.86759 298 ft 30 kts 69°
2026-04-17 21:02 69.72419 29.88080 298 ft 105 kts 69°
2026-04-17 21:02 69.72741 29.90492 486 ft 140 kts 68°
2026-04-17 21:03 69.73081 29.93094 1181 ft 137 kts 69°
2026-04-17 21:03 69.73405 29.95702 1795 ft 138 kts 70°
2026-04-17 21:03 69.73798 29.98345 2168 ft 155 kts 55°
2026-04-17 21:03 69.74733 30.00264 2388 ft 181 kts 19°
2026-04-17 21:04 69.76058 30.00082 2669 ft 208 kts 339°
2026-04-17 21:04 69.77188 29.97391 3406 ft 212 kts 317°
2026-04-17 21:04 69.78213 29.94333 4254 ft 212 kts 316°
2026-04-17 21:04 69.79237 29.91255 5087 ft 214 kts 316°
2026-04-17 21:05 69.80092 29.87484 5470 ft 240 kts 289°
2026-04-17 21:05 69.80309 29.82443 5841 ft 263 kts 274°
2026-04-17 21:05 69.80406 29.77051 6484 ft 272 kts 274°
2026-04-17 21:05 69.80492 29.71563 7168 ft 276 kts 274°
2026-04-17 21:06 69.80580 29.65974 7870 ft 279 kts 275°
2026-04-17 21:06 69.80670 29.60340 8567 ft 282 kts 275°
2026-04-17 21:06 69.80767 29.54655 9246 ft 284 kts 276°
2026-04-17 21:06 69.81058 29.48979 9894 ft 287 kts 279°
2026-04-17 21:07 69.81202 29.43191 10503 ft 291 kts 276°
2026-04-17 21:07 69.81318 29.37129 10629 ft 310 kts 275°
2026-04-17 21:07 69.81422 29.30757 10913 ft 319 kts 275°
2026-04-17 21:07 69.81514 29.24362 11455 ft 318 kts 275°
2026-04-17 21:08 69.81604 29.17949 11941 ft 320 kts 275°
2026-04-17 21:08 69.81693 29.11472 12407 ft 322 kts 275°
2026-04-17 21:08 69.81782 29.04971 12853 ft 325 kts 275°
2026-04-17 21:08 69.81876 28.98373 13150 ft 332 kts 276°
2026-04-17 21:09 69.81973 28.91652 13434 ft 337 kts 276°
2026-04-17 21:09 69.82068 28.84836 13783 ft 339 kts 275°
2026-04-17 21:09 69.82158 28.77991 14143 ft 341 kts 275°
2026-04-17 21:09 69.81980 28.71083 14441 ft 347 kts 265°
2026-04-17 21:10 69.81669 28.64150 14731 ft 348 kts 268°
2026-04-17 21:10 69.81576 28.57153 15031 ft 347 kts 274°
2026-04-17 21:10 69.81671 28.50192 15463 ft 341 kts 277°
2026-04-17 21:10 69.81799 28.43539 16331 ft 326 kts 277°
2026-04-17 21:11 69.81881 28.36971 17008 ft 327 kts 276°
2026-04-17 21:11 69.81909 28.30326 17573 ft 340 kts 275°
2026-04-17 21:11 69.81907 28.23261 17827 ft 359 kts 274°
2026-04-17 21:11 69.81883 28.15927 18411 ft 368 kts 274°
2026-04-17 21:12 69.81839 28.08470 19047 ft 373 kts 274°
2026-04-17 21:12 69.81773 28.00917 19688 ft 377 kts 274°
2026-04-17 21:12 69.81719 27.95877 20110 ft 380 kts 274°
2026-04-17 21:12 69.81624 27.88186 20751 ft 384 kts 273°
2026-04-17 21:13 69.81508 27.80431 21391 ft 387 kts 273°
2026-04-17 21:13 69.81369 27.72606 22022 ft 391 kts 272°
2026-04-17 21:13 69.81207 27.64727 22639 ft 395 kts 272°
2026-04-17 21:13 69.81012 27.56737 23241 ft 399 kts 271°
2026-04-17 21:14 69.80796 27.48693 23852 ft 403 kts 271°
2026-04-17 21:14 69.80572 27.40550 24387 ft 406 kts 272°
2026-04-17 21:14 69.80477 27.32390 24907 ft 407 kts 276°
2026-04-17 21:14 69.80509 27.24182 25395 ft 408 kts 278°
2026-04-17 21:15 69.80615 27.15962 25902 ft 411 kts 279°
2026-04-17 21:15 69.80744 27.07677 26392 ft 414 kts 279°
2026-04-17 21:15 69.80864 26.99298 26868 ft 418 kts 278°
2026-04-17 21:15 69.80961 26.90859 27354 ft 422 kts 278°
2026-04-17 21:16 69.81034 26.82335 27821 ft 426 kts 277°
2026-04-17 21:16 69.81086 26.73724 28281 ft 429 kts 277°
2026-04-17 21:16 69.81128 26.65064 28741 ft 433 kts 277°
2026-04-17 21:16 69.81163 26.56316 29190 ft 436 kts 277°
2026-04-17 21:17 69.81196 26.47489 29642 ft 440 kts 277°
2026-04-17 21:17 69.81228 26.38590 30081 ft 443 kts 277°
2026-04-17 21:17 69.81258 26.29641 30510 ft 447 kts 277°
2026-04-17 21:17 69.81285 26.20599 30883 ft 450 kts 277°
2026-04-17 21:18 69.81308 26.11510 31246 ft 453 kts 277°
2026-04-17 21:18 69.81328 26.02250 31612 ft 455 kts 277°
2026-04-17 21:18 69.81343 25.93064 31968 ft 458 kts 276°
2026-04-17 21:18 69.81352 25.83844 32387 ft 458 kts 276°
2026-04-17 21:19 69.81356 25.74759 32900 ft 457 kts 276°
2026-04-17 21:19 69.81354 25.65467 33426 ft 455 kts 276°
2026-04-17 21:19 69.81349 25.56320 33944 ft 454 kts 276°
2026-04-17 21:19 69.81340 25.47320 34455 ft 452 kts 276°
2026-04-17 21:20 69.81327 25.38103 34897 ft 451 kts 275°
2026-04-17 21:20 69.81306 25.29153 35329 ft 449 kts 275°
2026-04-17 21:20 69.81279 25.20026 35763 ft 448 kts 275°
2026-04-17 21:20 69.81248 25.11004 36178 ft 446 kts 275°
2026-04-17 21:21 69.81212 25.02023 36384 ft 446 kts 275°
2026-04-17 21:21 69.81173 24.93121 36425 ft 440 kts 275°
2026-04-17 21:21 69.81087 24.75498 36424 ft 436 kts 274°
2026-04-17 21:22 69.80777 24.57952 36420 ft 438 kts 270°
2026-04-17 21:22 69.80139 24.40397 36419 ft 439 kts 268°
2026-04-17 21:23 69.79432 24.22875 36420 ft 438 kts 268°
2026-04-17 21:23 69.78732 24.05372 36408 ft 438 kts 268°
2026-04-17 21:24 69.78033 23.87884 36113 ft 438 kts 268°
2026-04-17 21:24 69.77677 23.79121 35858 ft 439 kts 268°
2026-04-17 21:24 69.77318 23.70424 35532 ft 435 kts 268°
2026-04-17 21:25 69.76957 23.61762 35080 ft 434 kts 268°
2026-04-17 21:25 69.76593 23.53124 34621 ft 433 kts 268°
2026-04-17 21:25 69.76227 23.44518 34112 ft 431 kts 268°
2026-04-17 21:25 69.75857 23.35966 33645 ft 428 kts 268°
2026-04-17 21:26 69.75482 23.27471 33185 ft 425 kts 268°
2026-04-17 21:26 69.75104 23.19043 32726 ft 422 kts 268°
2026-04-17 21:26 69.74723 23.10648 32273 ft 420 kts 268°
2026-04-17 21:26 69.74345 23.02321 31826 ft 418 kts 268°
2026-04-17 21:27 69.73966 22.94032 31389 ft 416 kts 268°
2026-04-17 21:27 69.73584 22.85804 30949 ft 414 kts 267°
2026-04-17 21:27 69.73198 22.77580 30534 ft 412 kts 267°
2026-04-17 21:27 69.72810 22.69404 30070 ft 410 kts 267°
2026-04-17 21:28 69.72423 22.61299 29672 ft 407 kts 267°
2026-04-17 21:28 69.72036 22.53247 29273 ft 404 kts 267°
2026-04-17 21:28 69.71646 22.45263 28869 ft 401 kts 266°
2026-04-17 21:28 69.71254 22.37332 28486 ft 398 kts 266°
2026-04-17 21:29 69.70864 22.29478 28102 ft 395 kts 266°
2026-04-17 21:29 69.70474 22.21681 27697 ft 392 kts 266°
2026-04-17 21:29 69.70086 22.13926 27284 ft 390 kts 266°
2026-04-17 21:29 69.69697 22.06222 26896 ft 387 kts 266°
2026-04-17 21:30 69.69302 21.98568 26489 ft 386 kts 265°
2026-04-17 21:30 69.68904 21.90940 26080 ft 383 kts 265°
2026-04-17 21:30 69.68507 21.83382 25666 ft 381 kts 265°
2026-04-17 21:30 69.68109 21.75858 25242 ft 379 kts 265°
2026-04-17 21:31 69.67711 21.68380 24823 ft 377 kts 265°
2026-04-17 21:31 69.67312 21.60931 24390 ft 376 kts 265°
2026-04-17 21:31 69.66912 21.53535 23962 ft 374 kts 264°
2026-04-17 21:31 69.66511 21.46169 23482 ft 371 kts 264°
2026-04-17 21:32 69.66109 21.38883 23063 ft 367 kts 264°
2026-04-17 21:32 69.65708 21.31698 22638 ft 363 kts 264°
2026-04-17 21:32 69.65307 21.24558 22214 ft 360 kts 264°
2026-04-17 21:32 69.64909 21.17511 21801 ft 356 kts 263°
2026-04-17 21:33 69.64510 21.10509 21385 ft 353 kts 263°
2026-04-17 21:33 69.64113 21.03584 20981 ft 350 kts 263°
2026-04-17 21:33 69.63717 20.96706 20568 ft 347 kts 263°
2026-04-17 21:33 69.63324 20.89905 20161 ft 344 kts 263°
2026-04-17 21:34 69.62932 20.83150 19756 ft 342 kts 263°
2026-04-17 21:34 69.62538 20.76443 19356 ft 340 kts 262°
2026-04-17 21:34 69.61750 20.63213 18544 ft 334 kts 262°
2026-04-17 21:35 69.61358 20.56686 18122 ft 330 kts 262°
2026-04-17 21:35 69.60970 20.50249 17736 ft 326 kts 262°
2026-04-17 21:35 69.60586 20.43882 17355 ft 323 kts 262°
2026-04-17 21:35 69.60200 20.37561 16970 ft 320 kts 262°
2026-04-17 21:36 69.59814 20.31302 16595 ft 318 kts 262°
2026-04-17 21:36 69.59430 20.25093 16228 ft 315 kts 261°
2026-04-17 21:36 69.59044 20.18932 15861 ft 313 kts 261°
2026-04-17 21:36 69.58655 20.12797 15478 ft 311 kts 261°
2026-04-17 21:37 69.58270 20.06724 15115 ft 310 kts 261°
2026-04-17 21:37 69.57820 20.00711 14749 ft 309 kts 253°
2026-04-17 21:37 69.56967 19.95059 14383 ft 309 kts 243°
2026-04-17 21:37 69.55977 19.89595 13988 ft 308 kts 243°
2026-04-17 21:38 69.54993 19.84172 13614 ft 306 kts 243°
2026-04-17 21:38 69.54014 19.78796 13240 ft 304 kts 243°
2026-04-17 21:38 69.53045 19.73454 12887 ft 301 kts 243°
2026-04-17 21:38 69.52233 19.68973 12583 ft 299 kts 243°
2026-04-17 21:39 69.51277 19.63712 12226 ft 297 kts 243°
2026-04-17 21:39 69.50326 19.58495 11867 ft 295 kts 243°
2026-04-17 21:39 69.49378 19.53315 11506 ft 294 kts 243°
2026-04-17 21:39 69.48430 19.48155 11212 ft 293 kts 243°
2026-04-17 21:40 69.47790 19.44675 10930 ft 294 kts 243°
2026-04-17 21:40 69.46524 19.37785 10438 ft 292 kts 243°
2026-04-17 21:40 69.45572 19.32621 9836 ft 299 kts 242°
2026-04-17 21:40 69.44615 19.27465 9598 ft 290 kts 242°
2026-04-17 21:41 69.43683 19.22471 9204 ft 289 kts 242°
2026-04-17 21:41 69.42735 19.17411 8841 ft 287 kts 242°
2026-04-17 21:41 69.41806 19.12442 8649 ft 278 kts 242°
2026-04-17 21:41 69.40926 19.07723 8517 ft 269 kts 243°
2026-04-17 21:42 69.40317 19.02763 8385 ft 259 kts 261°
2026-04-17 21:42 69.40288 18.97743 8240 ft 251 kts 278°
2026-04-17 21:42 69.40655 18.92978 7966 ft 250 kts 283°
2026-04-17 21:42 69.41050 18.88115 7668 ft 249 kts 283°
2026-04-17 21:43 69.41430 18.83400 7466 ft 240 kts 283°
2026-04-17 21:43 69.41870 18.78949 7065 ft 239 kts 296°
2026-04-17 21:43 69.43043 18.75663 6439 ft 243 kts 337°
2026-04-17 21:43 69.44692 18.75210 5883 ft 241 kts 17°
2026-04-17 21:44 69.46187 18.77150 5507 ft 233 kts 25°
2026-04-17 21:44 69.47703 18.78411 5298 ft 223 kts 12°
2026-04-17 21:44 69.49217 18.79307 4999 ft 222 kts 12°
2026-04-17 21:44 69.50725 18.80260 4612 ft 222 kts 13°
2026-04-17 21:45 69.52224 18.81239 4207 ft 220 kts 13°
2026-04-17 21:45 69.53708 18.82214 3803 ft 216 kts 13°
2026-04-17 21:45 69.55135 18.83153 3418 ft 204 kts 13°
2026-04-17 21:45 69.56470 18.84031 3069 ft 193 kts 13°
2026-04-17 21:46 69.57748 18.84873 2707 ft 183 kts 13°
2026-04-17 21:46 69.58952 18.85668 2380 ft 172 kts 14°
2026-04-17 21:46 69.60050 18.86392 2089 ft 153 kts 14°
2026-04-17 21:46 69.61043 18.87049 1800 ft 140 kts 14°
2026-04-17 21:47 69.61972 18.87664 1530 ft 134 kts 14°
2026-04-17 21:47 69.62869 18.88258 1271 ft 130 kts 14°
2026-04-17 21:47 69.63742 18.88836 1020 ft 128 kts 14°
2026-04-17 21:47 69.64601 18.89414 758 ft 126 kts 14°
2026-04-17 21:48 69.65446 18.89967 524 ft 124 kts 13°
2026-04-17 21:48 69.66291 18.90524 351 ft 125 kts 13°
2026-04-17 21:48 69.67134 18.91087 139 ft 124 kts 13°
2026-04-17 21:48 69.67940 18.91622 43 ft 107 kts 12°
2026-04-17 21:49 69.68502 18.92001 42 ft 59 kts 13°
2026-04-17 21:49 69.68661 18.92107 42 ft 11 kts 13°
2026-04-17 21:49 69.68748 18.92134 39 ft 13 kts 325°
2026-04-17 21:49 69.68775 18.91867 42 ft 15 kts 282°
2026-04-17 21:50 69.68748 18.91700 42 ft 16 kts 200°
2026-04-17 21:50 69.68623 18.91616 42 ft 21 kts 193°
2026-04-17 21:50 69.68472 18.91515 42 ft 23 kts 192°
2026-04-17 21:50 69.68265 18.91456 42 ft 19 kts 193°
2026-04-17 21:51 69.68123 18.91362 42 ft 23 kts 193°
2026-04-17 21:51 69.67994 18.91266 42 ft 8 kts 212°
2026-04-17 21:51 69.67999 18.91098 39 ft 11 kts 284°
2026-04-17 21:51 69.68005 18.91031 41 ft 5 kts 282°
2026-04-17 21:52 69.68010 18.90971 42 ft 5 kts 283°
2026-04-17 21:52 69.68012 18.90940 42 ft 0 kts 283°